When you browse on this site, cookies collect data to enhance your experience and personalize the content and advertising you see.
Visit our Privacy Policy to learn more. By continuing to use the site, you agree to this use of cookies and data.
  • In Hungary
  • List of Countries
  • For 7 days
  • Water Temperature
  • Satellite Maps
  • Weather Map
  • News
  • Weather Widgets
  • user-avatar
    Login

    Hourly Weather Comayagua

    Today, 21 April, Sunday

    Time Temperature Precipitation Wind Pressure Humidity
    00:00 +20°C° 0 mm 1 mps 710 mmHg 83%
    01:00 +20°C° 0 mm 1 mps 710 mmHg 80%
    02:00 +20°C° 0 mm 1 mps 710 mmHg 78%
    03:00 +19°C° 0 mm 1 mps 709 mmHg 75%
    04:00 +19°C° 0 mm 1 mps 710 mmHg 74%
    05:00 +19°C° 0 mm 1 mps 710 mmHg 73%
    06:00 +19°C° 0 mm 1 mps 710 mmHg 71%
    07:00 +21°C° 0 mm 2 mps 710 mmHg 64%
    08:00 +25°C° 0 mm 2 mps 711 mmHg 57%
    09:00 +27°C° 0 mm 3 mps 712 mmHg 49%
    10:00 +29°C° 0 mm 3 mps 711 mmHg 48%
    11:00 +30°C° 0 mm 3 mps 711 mmHg 47%
    12:00 +31°C° 0 mm 3 mps 711 mmHg 45%
    13:00 +31°C° 0 mm 3 mps 710 mmHg 47%
    14:00 +31°C° 0 mm 3 mps 710 mmHg 48%
    15:00 +31°C° 0 mm 3 mps 709 mmHg 49%
    16:00 +30°C° 0 mm 2 mps 709 mmHg 55%
    17:00 +28°C° 0 mm 2 mps 709 mmHg 62%
    18:00 +27°C° 0 mm 2 mps 709 mmHg 68%
    19:00 +26°C° 0 mm 2 mps 710 mmHg 76%
    20:00 +24°C° 0 mm 1 mps 710 mmHg 83%
    21:00 +23°C° 0 mm 1 mps 711 mmHg 91%
    22:00 +23°C° 0 mm 1 mps 711 mmHg 91%
    23:00 +23°C° 0 mm 1 mps 711 mmHg 92%

    Tomorrow, 22 April, Monday

    Time Temperature Precipitation Wind Pressure Humidity
    00:00 +23°C° 0 mm 1 mps 711 mmHg 92%
    01:00 +23°C° 0 mm 1 mps 710 mmHg 93%
    02:00 +23°C° 0 mm 1 mps 709 mmHg 93%
    03:00 +23°C° 0 mm 1 mps 709 mmHg 94%
    04:00 +23°C° 0 mm 1 mps 709 mmHg 94%
    05:00 +23°C° 0 mm 1 mps 709 mmHg 93%
    06:00 +22°C° 0 mm 1 mps 709 mmHg 93%
    07:00 +24°C° 0 mm 1 mps 710 mmHg 83%
    08:00 +27°C° 0 mm 1 mps 710 mmHg 73%
    09:00 +29°C° 0 mm 1 mps 711 mmHg 63%
    10:00 +30°C° 0 mm 2 mps 710 mmHg 55%
    11:00 +32°C° 0 mm 2 mps 710 mmHg 47%
    12:00 +35°C° 0 mm 2 mps 710 mmHg 39%
    13:00 +35°C° 0 mm 2 mps 709 mmHg 41%
    14:00 +34°C° 0 mm 2 mps 708 mmHg 42%
    15:00 +34°C° 0 mm 2 mps 708 mmHg 43%
    16:00 +32°C° 0 mm 2 mps 708 mmHg 47%
    17:00 +30°C° 0 mm 2 mps 708 mmHg 52%
    18:00 +29°C° 0 mm 1 mps 708 mmHg 56%
    19:00 +28°C° 0 mm 1 mps 708 mmHg 65%
    20:00 +26°C° 0 mm 1 mps 709 mmHg 73%
    21:00 +25°C° 0 mm 1 mps 709 mmHg 82%
    22:00 +24°C° 0.1 mm 1 mps 709 mmHg 85%
    23:00 +24°C° 0.1 mm 1 mps 709 mmHg 87%

    Day after tomorrow, 23 April, Tuesday

    Time Temperature Precipitation Wind Pressure Humidity
    00:00 +22°C° 0.1 mm 0 mps 709 mmHg 90%
    01:00 +21°C° 0 mm 0 mps 709 mmHg 91%
    02:00 +21°C° 0 mm 0 mps 708 mmHg 93%
    03:00 +20°C° 0 mm 0 mps 708 mmHg 94%
    04:00 +20°C° 0 mm 0 mps 708 mmHg 94%
    05:00 +20°C° 0 mm 0 mps 708 mmHg 94%
    06:00 +20°C° 0 mm 0 mps 708 mmHg 94%
    07:00 +25°C° 0 mm 1 mps 709 mmHg 80%
    08:00 +28°C° 0 mm 1 mps 710 mmHg 65%
    09:00 +31°C° 0 mm 1 mps 710 mmHg 51%
    10:00 +33°C° 0 mm 1 mps 710 mmHg 45%
    11:00 +34°C° 0 mm 1 mps 710 mmHg 39%
    12:00 +37°C° 0 mm 2 mps 709 mmHg 33%
    13:00 +37°C° 0 mm 2 mps 709 mmHg 32%
    14:00 +37°C° 0 mm 2 mps 708 mmHg 31%
    15:00 +37°C° 0 mm 2 mps 707 mmHg 30%
    16:00 +34°C° 0 mm 1 mps 707 mmHg 35%
    17:00 +32°C° 0 mm 1 mps 707 mmHg 40%
    18:00 +31°C° 0 mm 1 mps 707 mmHg 46%
    19:00 +29°C° 0.1 mm 1 mps 707 mmHg 55%
    20:00 +28°C° 0.1 mm 1 mps 708 mmHg 64%
    21:00 +26°C° 0.1 mm 1 mps 708 mmHg 73%
    22:00 +25°C° 0.1 mm 1 mps 708 mmHg 75%
    23:00 +25°C° 0.1 mm 1 mps 708 mmHg 77%

    24 April, Wednesday

    Time Temperature Precipitation Wind Pressure Humidity
    00:00 +22°C° 0.1 mm 0 mps 708 mmHg 79%
    01:00 +22°C° 0 mm 0 mps 708 mmHg 81%
    02:00 +22°C° 0 mm 0 mps 707 mmHg 83%
    03:00 +21°C° 0 mm 0 mps 707 mmHg 85%
    04:00 +21°C° 0 mm 0 mps 707 mmHg 86%
    05:00 +21°C° 0 mm 0 mps 708 mmHg 87%
    06:00 +21°C° 0 mm 0 mps 708 mmHg 88%
    07:00 +24°C° 0 mm 0 mps 709 mmHg 75%
    08:00 +29°C° 0 mm 1 mps 709 mmHg 63%
    09:00 +32°C° 0 mm 1 mps 710 mmHg 50%
    10:00 +35°C° 0 mm 1 mps 710 mmHg 43%
    11:00 +37°C° 0 mm 1 mps 710 mmHg 36%
    12:00 +40°C° 0 mm 1 mps 709 mmHg 29%
    13:00 +37°C° 0 mm 1 mps 708 mmHg 32%
    14:00 +36°C° 0 mm 1 mps 708 mmHg 35%
    15:00 +34°C° 0 mm 1 mps 707 mmHg 38%
    16:00 +33°C° 0.1 mm 1 mps 707 mmHg 43%
    17:00 +31°C° 0.1 mm 1 mps 707 mmHg 48%
    18:00 +30°C° 0.1 mm 1 mps 707 mmHg 53%
    19:00 +29°C° 0 mm 1 mps 707 mmHg 58%
    20:00 +28°C° 0 mm 1 mps 708 mmHg 62%
    21:00 +27°C° 0 mm 1 mps 708 mmHg 67%
    22:00 +27°C° 0 mm 1 mps 708 mmHg 69%
    23:00 +26°C° 0 mm 1 mps 708 mmHg 72%

    25 April, Thursday

    Time Temperature Precipitation Wind Pressure Humidity
    00:00 +25°C° 0 mm 1 mps 707 mmHg 74%
    01:00 +25°C° 0 mm 1 mps 707 mmHg 76%
    02:00 +24°C° 0 mm 1 mps 707 mmHg 78%
    03:00 +24°C° 0 mm 1 mps 706 mmHg 80%
    04:00 +24°C° 0 mm 1 mps 707 mmHg 82%
    05:00 +23°C° 0 mm 1 mps 707 mmHg 85%
    06:00 +23°C° 0 mm 1 mps 708 mmHg 87%
    07:00 +26°C° 0 mm 1 mps 708 mmHg 76%
    08:00 +29°C° 0 mm 1 mps 709 mmHg 64%
    09:00 +31°C° 0 mm 2 mps 710 mmHg 53%
    10:00 +34°C° 0 mm 2 mps 709 mmHg 48%
    11:00 +36°C° 0 mm 2 mps 709 mmHg 42%
    12:00 +37°C° 0 mm 2 mps 709 mmHg 36%
    13:00 +37°C° 0 mm 2 mps 708 mmHg 37%
    14:00 +36°C° 0 mm 2 mps 708 mmHg 39%
    15:00 +36°C° 0 mm 2 mps 707 mmHg 40%
    16:00 +34°C° 0.1 mm 2 mps 707 mmHg 45%
    17:00 +32°C° 0.1 mm 2 mps 707 mmHg 51%
    18:00 +31°C° 0.1 mm 1 mps 707 mmHg 56%
    19:00 +30°C° 0.1 mm 1 mps 708 mmHg 63%
    20:00 +28°C° 0.1 mm 1 mps 708 mmHg 71%
    21:00 +27°C° 0.1 mm 1 mps 708 mmHg 78%
    22:00 +27°C° 0 mm 1 mps 708 mmHg 80%
    23:00 +26°C° 0 mm 1 mps 708 mmHg 81%

    26 April, Friday

    Time Temperature Precipitation Wind Pressure Humidity
    00:00 +26°C° 0 mm 1 mps 708 mmHg 83%
    01:00 +25°C° 0.1 mm 1 mps 708 mmHg 84%
    02:00 +25°C° 0.1 mm 1 mps 708 mmHg 84%
    03:00 +25°C° 0.1 mm 1 mps 707 mmHg 85%
    04:00 +24°C° 0 mm 1 mps 708 mmHg 85%
    05:00 +24°C° 0 mm 1 mps 708 mmHg 85%
    06:00 +24°C° 0 mm 1 mps 708 mmHg 84%
    07:00 +27°C° 0 mm 1 mps 709 mmHg 72%
    08:00 +30°C° 0 mm 1 mps 710 mmHg 59%
    09:00 +34°C° 0 mm 1 mps 710 mmHg 46%
    10:00 +35°C° 0 mm 1 mps 710 mmHg 41%
    11:00 +37°C° 0 mm 1 mps 710 mmHg 35%
    12:00 +39°C° 0 mm 1 mps 709 mmHg 30%
    13:00 +39°C° 0 mm 2 mps 709 mmHg 30%
    14:00 +38°C° 0 mm 2 mps 708 mmHg 30%
    15:00 +38°C° 0 mm 3 mps 707 mmHg 30%
    16:00 +36°C° 0 mm 3 mps 707 mmHg 36%
    17:00 +34°C° 0 mm 2 mps 707 mmHg 42%
    18:00 +32°C° 0 mm 2 mps 707 mmHg 48%
    19:00 +30°C° 0 mm 2 mps 708 mmHg 53%
    20:00 +29°C° 0 mm 2 mps 708 mmHg 58%
    21:00 +27°C° 0 mm 1 mps 709 mmHg 64%
    22:00 +26°C° 0 mm 1 mps 708 mmHg 67%
    23:00 +26°C° 0 mm 1 mps 708 mmHg 71%
    Show more